Location: Shepherdstown, WV
(39.4326°N, 77.8042°W)
Time: 04:33:55
(UTC-04:00)

Vanguard 1 - Pass Details

Date: 30 September 2021
Orbit: 653 x 3829 km, 34.2° (Epoch: 18 October)

Event Time Altitude Azimuth Distance (km) Brightness Sun altitude
Rises 23:06:22 0° 278° (W) 6,517 14.8 -45.5°
Reaches altitude 10° 23:10:08 10° 276° (W) 5,830 14.3 -45.9°
Enters shadow 23:28:33 63° 213° (SSW) 4,013 12.7 -48.2°
